Location: White Mills Observatory
(37.5374°N, 86.0303°W)
Time: 18:18:39
(UTC-04:00)

Amateur Radio Satellites - All Passes

Search period start: 27 August 2016 17:48
Search period end: 28 August 2016 17:48
Location: White Mills Observatory, 37.5374°N, 86.0303°W

Satellite Date Start Highest point End Downlink Frequencies (MHz)
Time Altitude Azimuth
CUBESAT XI-V 27 Aug 18:09:03 18:12:50 24° 95° (E) 18:16:36 437.345
SRMSAT 27 Aug 18:12:55 18:13:19 10° 191° (S) 18:13:43 437.500
Cosmos 2491 27 Aug 18:15:13 18:22:18 29° 83° (E) 18:29:25 435.465 / 435.565
KKS-1 27 Aug 18:21:54 18:26:01 38° 289° (WNW) 18:30:07 437.445
MOZHAYETS 4 27 Aug 18:26:38 18:30:27 27° 291° (WNW) 18:34:16
Cubesat XI-IV 27 Aug 18:33:38 18:38:24 34° 69° (ENE) 18:43:10 437.490
GOMX 1 27 Aug 18:33:39 18:38:05 31° 69° (ENE) 18:42:44 467.674
YUBILEINY 27 Aug 18:35:23 18:44:09 71° 81° (E) 18:52:49 435.215
HORYU 2 27 Aug 18:40:17 18:44:19 34° 262° (W) 18:48:23 437.375
DOVE 4 27 Aug 18:42:21 18:45:48 18° 65° (ENE) 18:49:19 437.250
CUTE-I 27 Aug 18:45:14 18:50:15 44° 71° (ENE) 18:55:17 437.470
NOAA 15 27 Aug 18:46:52 18:52:00 59° 73° (ENE) 18:57:12 137.62
AO-7 27 Aug 18:54:04 18:55:29 10° 272° (W) 18:56:54 29.400- 29.500
Cosmos 2504 27 Aug 18:56:04 19:02:19 31° 73° (ENE) 19:08:30 435.465 / 435.565
BRITE-PL 27 Aug 18:56:21 19:01:06 72° 259° (W) 19:06:17 437.365/2234.400
STARS 27 Aug 18:58:26 19:02:18 31° 290° (WNW) 19:06:08 437.465
BEESAT 2 27 Aug 18:59:11 19:00:54 12° 45° (NE) 19:02:36 435.950
LilacSat-2 27 Aug 19:06:03 19:09:52 66° 76° (ENE) 19:13:40 437.200
HO-68 27 Aug 19:11:45 19:16:01 17° 56° (ENE) 19:20:16 435.675
BEESAT 3 27 Aug 19:16:12 19:19:47 31° 53° (NE) 19:23:20 437.485
NOAA 18 27 Aug 19:23:33 19:29:06 89° 257° (WSW) 19:34:40 137.9125
CINEMA 3 27 Aug 19:25:22 19:27:42 13° 64° (ENE) 19:30:03 145.822/145.860
CUBESAT XI-V 27 Aug 19:46:03 19:50:12 31° 289° (WNW) 19:54:19 437.345
Cosmos 2491 27 Aug 20:10:06 20:18:34 55° 282° (WNW) 20:27:09 435.465 / 435.565
CANX-2 27 Aug 20:10:27 20:14:00 27° 71° (ENE) 20:17:35 2200.000
GOMX 1 27 Aug 20:11:45 20:16:04 29° 266° (W) 20:20:39 467.674
Cubesat XI-IV 27 Aug 20:13:56 20:18:27 28° 264° (W) 20:22:59 437.490
CUTE 1.7 + AOD 2 27 Aug 20:16:33 20:20:08 28° 71° (ENE) 20:23:43 437.475
DOVE 4 27 Aug 20:17:59 20:22:59 54° 261° (W) 20:28:10 437.250
AAUSAT CUBESAT 2 27 Aug 20:22:48 20:24:19 12° 65° (ENE) 20:25:50 437.432
CUTE-I 27 Aug 20:26:29 20:30:28 21° 266° (W) 20:34:26 437.470
NOAA 15 27 Aug 20:29:11 20:32:08 15° 268° (W) 20:35:07 137.62
COMPASS 1 27 Aug 20:29:18 20:32:09 18° 68° (ENE) 20:35:00 437.405
YUBILEINY 27 Aug 20:33:51 20:40:00 22° 280° (W) 20:46:07 435.215
BEESAT 2 27 Aug 20:35:10 20:39:09 66° 242° (WSW) 20:43:05 435.950
PCSat 27 Aug 20:41:39 20:44:17 13° 44° (NE) 20:46:54 145.827
Cosmos 2504 27 Aug 20:49:07 20:55:45 41° 271° (W) 21:02:21 435.465 / 435.565
BEESAT 3 27 Aug 20:54:21 20:57:14 19° 249° (WSW) 21:00:05 437.485
HO-68 27 Aug 20:55:33 21:02:45 89° 254° (WSW) 21:10:00 435.675
CINEMA 3 27 Aug 20:59:14 21:04:13 69° 258° (WSW) 21:09:13 145.822/145.860
STRAND 1 27 Aug 21:03:27 21:08:35 78° 103° (ESE) 21:13:41 437.568
Oscar 11 27 Aug 21:03:50 21:06:12 15° 66° (ENE) 21:08:35 145.826/435.025
AIST 2 27 Aug 21:09:45 21:11:45 13° 45° (NE) 21:13:46 435.215
FUNcube-1 27 Aug 21:10:43 21:13:33 17° 67° (ENE) 21:16:22 145.935
UWE-3 27 Aug 21:16:08 21:20:14 33° 72° (ENE) 21:24:15 435.000/436.395/437.385
CUBEBUG 2 27 Aug 21:17:53 21:22:27 53° 74° (ENE) 21:26:56 437.445
SEEDS 27 Aug 21:24:00 21:28:07 65° 259° (W) 21:32:16 437.485
AIST 1 27 Aug 21:26:13 21:30:36 63° 81° (E) 21:34:56
ZACube-1 27 Aug 21:30:59 21:34:53 30° 71° (ENE) 21:38:43 437.345
CANX-2 27 Aug 21:46:37 21:49:50 21° 265° (W) 21:53:04 2200.000
CUTE 1.7 + AOD 2 27 Aug 21:52:45 21:55:56 21° 265° (W) 21:59:08 437.475
AAUSAT CUBESAT 2 27 Aug 21:55:19 21:59:19 51° 260° (W) 22:03:20 437.432
DELFI C3 27 Aug 21:59:57 22:03:04 23° 70° (ENE) 22:06:13 145.870
COMPASS 1 27 Aug 22:03:47 22:07:27 31° 263° (W) 22:11:10 437.405
HUMSAT D 27 Aug 22:18:14 22:21:12 19° 68° (ENE) 22:24:08 437.325/437.525
PCSat 27 Aug 22:23:02 22:28:29 86° 62° (ENE) 22:33:53 145.827
AUBIESAT-1 27 Aug 22:27:58 22:28:57 11° 57° (ENE) 22:29:55 437.475
M-CUBED/EXP-1 PRIME 27 Aug 22:31:52 22:34:29 15° 60° (ENE) 22:37:06 437.505
Oscar 11 27 Aug 22:37:49 22:41:56 45° 261° (W) 22:46:04 145.826/435.025
PRISM 27 Aug 22:39:38 22:43:50 83° 284° (WNW) 22:48:01 437.425
STRAND 1 27 Aug 22:45:10 22:47:03 12° 299° (WNW) 22:48:56 437.568
FUNcube-1 27 Aug 22:45:16 22:49:28 40° 261° (W) 22:53:37 145.935
AIST 2 27 Aug 22:46:31 22:50:41 67° 242° (WSW) 22:54:49 435.215
HO-68 27 Aug 22:47:57 22:51:17 14° 270° (W) 22:54:38 435.675
GONETS M04 27 Aug 22:51:35 22:58:05 22° 67° (ENE) 23:04:32
UWE-3 27 Aug 22:53:13 22:56:41 21° 265° (W) 23:00:07 435.000/436.395/437.385
CUBEBUG 2 27 Aug 22:56:57 22:59:18 14° 268° (W) 23:01:39 437.445
ESTCUBE 1 27 Aug 23:02:22 23:02:36 10° 62° (ENE) 23:02:50 437.505/2401.250
TIGRISAT 27 Aug 23:02:24 23:04:42 14° 92° (E) 23:06:58 435.000
ZACube-1 27 Aug 23:07:39 23:11:08 22° 265° (W) 23:14:34 437.345
UNISAT 6 27 Aug 23:29:46 23:33:37 32° 97° (E) 23:37:25 437.425
DELFI C3 27 Aug 23:34:45 23:37:49 22° 265° (W) 23:40:55 145.870
CUSAT 1 27 Aug 23:41:32 23:42:42 12° 85° (E) 23:43:58 437.405
HUMSAT D 27 Aug 23:52:54 23:56:36 30° 263° (W) 00:00:16 437.325/437.525
Cosmos 2499 27 Aug 23:52:58 23:59:25 37° 75° (ENE) 00:05:54 435.465 / 435.565
VELOX 1 27 Aug 23:54:23 23:57:41 21° 68° (ENE) 00:01:00 145.980
O/OREOS (USA 219) 27 Aug 23:54:24 23:57:36 18° 58° (ENE) 00:00:48 437.305
CUBEBUG 1 27 Aug 23:55:49 23:59:27 26° 69° (ENE) 00:03:06 437.445
SO-50 27 Aug 23:56:45 00:01:06 33° 113° (ESE) 00:05:26 436.795
AUBIESAT-1 27 Aug 23:58:04 00:02:40 86° 251° (WSW) 00:07:21 437.475
M-CUBED/EXP-1 PRIME 28 Aug 00:03:51 00:08:26 62° 255° (WSW) 00:13:08 437.505
ANTELSAT 28 Aug 00:06:24 00:10:42 88° 103° (ESE) 00:14:57 437.575/2403.000
PCSat 28 Aug 00:10:02 00:11:03 10° 258° (WSW) 00:12:05 145.827
DX 1 28 Aug 00:11:18 00:14:37 21° 67° (ENE) 00:17:56 434.975-435.025
POPSAT HIP 1 28 Aug 00:13:41 00:15:29 12° 92° (E) 00:17:15 437.405
SPROUT 28 Aug 00:13:58 00:16:39 16° 67° (ENE) 00:19:20 437.525
50 SAT 28 Aug 00:22:22 00:25:40 36° 73° (ENE) 00:28:59 437.505
ESTCUBE 1 28 Aug 00:34:18 00:38:45 74° 258° (WSW) 00:43:15 437.505/2401.250
TIGRISAT 28 Aug 00:37:33 00:41:35 41° 287° (WNW) 00:45:35 435.000
DANDE 28 Aug 00:39:02 00:40:32 14° 91° (E) 00:42:04 436.750
DUCHIFAT 1 28 Aug 00:39:55 00:43:15 23° 95° (E) 00:46:35 145.980
AISAT 28 Aug 00:42:01 00:46:27 75° 76° (ENE) 00:50:56 437.250
QB50P2 28 Aug 00:42:28 00:46:11 30° 97° (E) 00:49:55 145.880/145.840
POLYITAN 1 28 Aug 00:44:59 00:48:43 30° 97° (E) 00:52:25 437.675
GONETS M04 28 Aug 00:46:55 00:55:46 75° 266° (W) 01:04:32
UKube-1 28 Aug 00:50:34 00:54:41 45° 72° (ENE) 00:58:49 .
NANOSAT C BR1 28 Aug 00:53:22 00:57:15 35° 98° (E) 01:01:06 145.865
UNISAT 6 28 Aug 01:07:03 01:10:06 19° 292° (WNW) 01:13:07 437.425
JAS-2 28 Aug 01:13:51 01:20:20 40° 98° (E) 01:27:22 435.910
CUSAT 1 28 Aug 01:22:20 01:24:24 17° 290° (WNW) 01:26:46 437.405
VELOX 1 28 Aug 01:29:56 01:33:54 33° 262° (W) 01:37:57 145.980
RS-15 28 Aug 01:31:32 01:42:03 45° 108° (ESE) 01:53:06 29.354- 29.394
CUBEBUG 1 28 Aug 01:31:59 01:35:37 25° 264° (W) 01:39:18 437.445
O/OREOS (USA 219) 28 Aug 01:32:52 01:37:12 42° 255° (WSW) 01:41:31 437.305
BUGSAT 1 28 Aug 01:34:05 01:37:59 40° 99° (E) 01:41:48 437.445
QB50P1 28 Aug 01:37:19 01:41:29 61° 285° (WNW) 01:45:37 145.935-145.965
SO-50 28 Aug 01:37:23 01:41:35 29° 309° (NW) 01:45:46 436.795
Cosmos 2499 28 Aug 01:46:12 01:52:22 34° 273° (W) 01:58:37 435.465 / 435.565
DX 1 28 Aug 01:46:43 01:50:35 31° 263° (W) 01:54:29 434.975-435.025
POPSAT HIP 1 28 Aug 01:47:27 01:51:30 47° 287° (WNW) 01:55:31 437.405
SPROUT 28 Aug 01:48:11 01:52:14 40° 262° (W) 01:56:19 437.525
50 SAT 28 Aug 01:58:19 01:59:23 11° 267° (W) 02:00:29 437.505
BEESAT 28 Aug 02:03:30 02:05:14 12° 62° (ENE) 02:06:59 436.000
TISAT 1 28 Aug 02:06:16 02:10:28 65° 75° (ENE) 02:14:41 437.305
DUCHIFAT 1 28 Aug 02:15:25 02:18:52 25° 290° (WNW) 02:22:19 145.980
PHONESAT 2.4 28 Aug 02:17:58 02:20:40 31° 152° (SSE) 02:23:23 2401.200-2431.200
QB50P2 28 Aug 02:18:43 02:21:47 20° 292° (WNW) 02:24:51 145.880/145.840
POLYITAN 1 28 Aug 02:21:15 02:24:18 20° 292° (WNW) 02:27:19 437.675
UKube-1 28 Aug 02:28:39 02:30:56 14° 267° (W) 02:33:12 .
NANOSAT C BR1 28 Aug 02:29:56 02:32:40 17° 293° (WNW) 02:35:24 145.865
Gurwin Techsat 1B 28 Aug 02:40:43 02:44:06 17° 92° (E) 02:47:28 435.225
GONETS M04 28 Aug 02:48:01 02:50:55 12° 285° (WNW) 02:53:51
ITUPSAT 1 28 Aug 02:48:10 02:52:25 34° 70° (ENE) 02:56:42 437.325
JAS-2 28 Aug 02:59:00 03:05:13 38° 291° (WNW) 03:12:01 435.910
Oscar 19 28 Aug 03:06:28 03:11:40 69° 102° (ESE) 03:16:50 437.125/150
BUGSAT 1 28 Aug 03:10:39 03:12:59 15° 294° (WNW) 03:15:18 437.445
SWISSCUBE 28 Aug 03:20:31 03:25:17 86° 74° (ENE) 03:30:03 437.505
BEESAT 28 Aug 03:37:40 03:42:24 70° 258° (WSW) 03:47:09 436.000
RS-15 28 Aug 03:43:02 03:54:16 54° 310° (NW) 04:06:08 29.354- 29.394
KKS-1 28 Aug 03:43:26 03:45:43 14° 64° (ENE) 03:48:00 437.445
MOZHAYETS 4 28 Aug 03:49:58 03:53:21 21° 68° (ENE) 03:56:43
PHONESAT 2.4 28 Aug 03:53:57 03:56:55 62° 348° (NNW) 03:59:54 2401.200-2431.200
STARS 28 Aug 04:18:04 04:20:44 16° 66° (ENE) 04:23:25 437.465
Gurwin Techsat 1B 28 Aug 04:19:10 04:24:21 54° 287° (WNW) 04:29:30 435.225
ITAMSAT 1 28 Aug 04:21:19 04:26:18 46° 100° (E) 04:31:16 435.822/435.867
ITUPSAT 1 28 Aug 04:26:36 04:30:18 22° 265° (W) 04:34:00 437.325
Cosmos 2491 28 Aug 04:29:42 04:32:42 12° 60° (ENE) 04:35:41 435.465 / 435.565
Oscar 19 28 Aug 04:47:45 04:50:22 14° 298° (WNW) 04:52:58 437.125/150
AO-7 28 Aug 04:57:07 05:05:02 46° 101° (E) 05:12:51 29.400- 29.500
CUBESAT XI-V 28 Aug 05:11:03 05:14:15 19° 67° (ENE) 05:17:27 437.345
KKS-1 28 Aug 05:17:26 05:21:48 53° 260° (W) 05:26:12 437.445
MOZHAYETS 4 28 Aug 05:26:07 05:30:16 34° 263° (W) 05:34:26
PHONESAT 2.4 28 Aug 05:30:35 05:33:29 46° 4° (N) 05:36:23 2401.200-2431.200
AO-85 28 Aug 05:34:52 05:39:37 33° 113° (ESE) 05:44:12 145.980
YUBILEINY 28 Aug 05:42:06 05:46:34 15° 77° (ENE) 05:51:00 435.215
STARS 28 Aug 05:52:28 05:56:42 44° 261° (W) 06:00:58 437.465
ITAMSAT 1 28 Aug 06:01:42 06:05:25 20° 295° (WNW) 06:09:06 435.822/435.867
RS-15 28 Aug 06:02:16 06:10:35 21° 340° (NNW) 06:19:08 29.354- 29.394
Cosmos 2491 28 Aug 06:22:29 06:31:19 69° 81° (E) 06:40:06 435.465 / 435.565
HORYU 2 28 Aug 06:32:37 06:36:55 50° 100° (E) 06:41:11 437.375
GOMX 1 28 Aug 06:39:55 06:41:34 11° 88° (E) 06:43:12 467.674
STRAND 1 28 Aug 06:43:15 06:44:01 10° 60° (ENE) 06:44:46 437.568
CUBESAT XI-V 28 Aug 06:47:00 06:51:18 39° 262° (W) 06:55:38 437.345
AO-7 28 Aug 06:50:09 06:57:35 38° 298° (WNW) 07:04:59 29.400- 29.500
Cubesat XI-IV 28 Aug 06:53:56 06:56:58 15° 92° (E) 06:59:59 437.490
BRITE-PL 28 Aug 07:02:51 07:08:22 48° 98° (E) 07:13:42 437.365/2234.400
NOAA 15 28 Aug 07:04:29 07:08:53 26° 96° (E) 07:13:15 137.62
CUTE-I 28 Aug 07:04:58 07:08:49 20° 94° (E) 07:12:40 437.470
PHONESAT 2.4 28 Aug 07:06:58 07:09:56 71° 201° (SSW) 07:12:54 2401.200-2431.200
AO-85 28 Aug 07:15:20 07:20:04 32° 307° (NW) 07:24:35 145.980
Cosmos 2504 28 Aug 07:31:40 07:38:43 31° 86° (E) 07:45:24 435.465 / 435.565
YUBILEINY 28 Aug 07:33:07 07:41:58 86° 94° (E) 07:50:50 435.215
NOAA 18 28 Aug 07:47:49 07:53:03 45° 100° (E) 07:58:15 137.9125
HORYU 2 28 Aug 08:10:43 08:13:02 14° 295° (WNW) 08:15:20 437.375
GOMX 1 28 Aug 08:14:50 08:20:16 77° 284° (WNW) 08:25:22 467.674
LilacSat-2 28 Aug 08:15:28 08:19:11 59° 285° (WNW) 08:22:52 437.200
STRAND 1 28 Aug 08:17:17 08:22:24 89° 253° (WSW) 08:27:32 437.568
DOVE 4 28 Aug 08:19:19 08:24:13 52° 98° (E) 08:28:49 437.250
Cosmos 2491 28 Aug 08:20:51 08:27:15 23° 279° (W) 08:33:41 435.465 / 435.565
RS-15 28 Aug 08:21:33 08:29:52 20° 18° (NNE) 08:38:12 29.354- 29.394
ISS 28 Aug 08:26:17 08:28:34 18° 130° (SE) 08:30:52 145.825
HO-68 28 Aug 08:27:03 08:31:53 19° 92° (E) 08:36:39 435.675
SO-50 28 Aug 08:30:28 08:33:47 19° 46° (NE) 08:37:02 436.795
Cubesat XI-IV 28 Aug 08:32:10 08:37:24 59° 287° (WNW) 08:42:36 437.490
BRITE-PL 28 Aug 08:42:04 08:46:24 23° 294° (WNW) 08:50:40 437.365/2234.400
NOAA 15 28 Aug 08:43:51 08:48:40 36° 291° (WNW) 08:53:28 137.62
CUTE-I 28 Aug 08:44:01 08:49:04 45° 289° (WNW) 08:54:05 437.470
PHONESAT 2.4 28 Aug 08:44:26 08:45:55 13° 215° (SW) 08:47:23 2401.200-2431.200
CINEMA 3 28 Aug 08:56:47 09:00:48 31° 96° (E) 09:04:38 145.822/145.860
SEEDS 28 Aug 09:10:15 09:13:37 23° 95° (E) 09:16:59 437.485
CUBEBUG 2 28 Aug 09:13:15 09:14:33 11° 91° (E) 09:15:51 437.445
Cosmos 2504 28 Aug 09:23:32 09:31:43 51° 282° (WNW) 09:39:25 435.465 / 435.565
PRISM 28 Aug 09:26:53 09:30:51 51° 73° (ENE) 09:34:51 437.425
NOAA 18 28 Aug 09:29:14 09:33:22 22° 296° (WNW) 09:37:29 137.9125
CANX-2 28 Aug 09:32:12 09:36:27 73° 101° (ESE) 09:40:41 2200.000
YUBILEINY 28 Aug 09:34:12 09:39:53 18° 295° (WNW) 09:45:36 435.215
CUTE 1.7 + AOD 2 28 Aug 09:38:11 09:42:26 74° 101° (ESE) 09:46:41 437.475
AAUSAT CUBESAT 2 28 Aug 09:39:41 09:43:13 26° 96° (E) 09:46:45 437.432
COMPASS 1 28 Aug 09:47:56 09:51:56 43° 99° (E) 09:55:55 437.405
AIST 1 28 Aug 09:53:21 09:57:24 40° 92° (E) 10:01:30
DOVE 4 28 Aug 09:58:17 10:01:22 17° 296° (WNW) 10:04:20 437.250
TIGRISAT 28 Aug 10:00:11 10:01:52 12° 64° (ENE) 10:03:32 435.000
ISS 28 Aug 10:01:41 10:04:48 40° 325° (NW) 10:07:57 145.825
SO-50 28 Aug 10:10:08 10:14:31 48° 244° (WSW) 10:18:48 436.795
CUSAT 1 28 Aug 10:11:45 10:16:55 23° 72° (ENE) 10:22:42 437.405
HO-68 28 Aug 10:13:00 10:20:09 72° 289° (WNW) 10:27:15 435.675
BEESAT 2 28 Aug 10:25:16 10:28:47 32° 114° (ESE) 10:32:21 435.950
UNISAT 6 28 Aug 10:26:43 10:30:27 25° 69° (ENE) 10:34:06 437.425
Oscar 11 28 Aug 10:26:50 10:30:49 35° 98° (E) 10:34:47 145.826/435.025
CINEMA 3 28 Aug 10:34:23 10:37:42 21° 293° (WNW) 10:40:55 145.822/145.860
RS-15 28 Aug 10:34:38 10:46:33 50° 48° (NE) 10:58:14 29.354- 29.394
FUNcube-1 28 Aug 10:35:06 10:39:02 40° 98° (E) 10:42:54 145.935
BEESAT 3 28 Aug 10:41:44 10:45:38 74° 301° (WNW) 10:49:34 437.485
UWE-3 28 Aug 10:43:37 10:47:48 87° 283° (WNW) 10:51:56 435.000/436.395/437.385
SEEDS 28 Aug 10:45:45 10:49:14 26° 290° (WNW) 10:52:44 437.485
CUBEBUG 2 28 Aug 10:47:24 10:51:29 49° 286° (WNW) 10:55:29 437.445
ZACube-1 28 Aug 10:56:47 11:00:56 82° 101° (E) 11:05:04 437.345
ANTELSAT 28 Aug 11:02:42 11:07:15 61° 75° (ENE) 11:11:43 437.575/2403.000
PRISM 28 Aug 11:05:27 11:06:26 11° 268° (W) 11:07:26 437.425
DELFI C3 28 Aug 11:13:04 11:16:58 49° 99° (E) 11:20:51 145.870
DANDE 28 Aug 11:13:43 11:18:27 26° 76° (ENE) 11:24:12 436.750
AAUSAT CUBESAT 2 28 Aug 11:15:19 11:18:32 22° 291° (WNW) 11:21:46 437.432
PCSat 28 Aug 11:22:21 11:25:06 14° 103° (ESE) 11:27:50 145.827
COMPASS 1 28 Aug 11:24:51 11:27:06 14° 294° (WNW) 11:29:22 437.405
DUCHIFAT 1 28 Aug 11:30:55 11:33:13 14° 66° (ENE) 11:35:32 145.980
AIST 1 28 Aug 11:32:38 11:35:11 15° 288° (WNW) 11:37:44
TIGRISAT 28 Aug 11:33:25 11:38:01 65° 259° (W) 11:42:32 435.000
QB50P2 28 Aug 11:33:45 11:36:46 19° 68° (ENE) 11:39:47 145.880/145.840
POLYITAN 1 28 Aug 11:36:14 11:39:17 19° 68° (ENE) 11:42:19 437.675
HUMSAT D 28 Aug 11:37:37 11:41:32 44° 99° (E) 11:45:27 437.325/437.525
ISS 28 Aug 11:41:23 11:42:00 10° 344° (NNW) 11:42:35 145.825
NANOSAT C BR1 28 Aug 11:43:58 11:47:14 22° 69° (ENE) 11:50:30 145.865
GONETS M04 28 Aug 11:50:48 11:57:37 26° 82° (E) 12:04:26
CUSAT 1 28 Aug 11:52:31 11:59:07 65° 264° (W) 12:06:52 437.405
UNISAT 6 28 Aug 12:03:00 12:07:00 29° 263° (W) 12:10:58 437.425
BEESAT 2 28 Aug 12:03:40 12:06:40 20° 310° (NW) 12:09:41 435.950
Oscar 11 28 Aug 12:03:45 12:06:40 18° 293° (WNW) 12:09:35 145.826/435.025
HO-68 28 Aug 12:03:51 12:06:36 13° 307° (NW) 12:09:21 435.675
FUNcube-1 28 Aug 12:12:37 12:14:55 15° 294° (WNW) 12:17:12 145.935
BUGSAT 1 28 Aug 12:22:06 12:25:26 23° 69° (ENE) 12:28:48 437.445
Cosmos 2499 28 Aug 12:26:57 12:34:05 34° 87° (E) 12:40:46 435.465 / 435.565
QB50P1 28 Aug 12:27:15 12:31:31 74° 76° (ENE) 12:35:47 145.935-145.965
ESTCUBE 1 28 Aug 12:29:06 12:32:56 26° 96° (E) 12:36:45 437.505/2401.250
AISAT 28 Aug 12:35:21 12:38:12 16° 93° (E) 12:41:00 437.250
POPSAT HIP 1 28 Aug 12:37:19 12:41:36 86° 254° (WSW) 12:45:54 437.405
AIST 2 28 Aug 12:42:07 12:45:55 39° 115° (ESE) 12:49:46 435.215
JUGNU 28 Aug 12:42:45 12:45:23 13° 176° (S) 12:48:01 437.505
ANTELSAT 28 Aug 12:42:46 12:44:16 11° 269° (W) 12:45:45 437.575/2403.000
RS-15 28 Aug 12:47:27 12:59:09 52° 251° (WSW) 13:10:35 29.354- 29.394
DELFI C3 28 Aug 12:49:56 12:51:21 12° 294° (WNW) 12:52:46 145.870
DANDE 28 Aug 12:55:43 13:01:10 46° 265° (W) 13:08:04 436.750
PCSat 28 Aug 13:02:27 13:07:50 69° 299° (WNW) 13:13:16 145.827
DUCHIFAT 1 28 Aug 13:04:26 13:08:30 45° 261° (W) 13:12:36 145.980
QB50P2 28 Aug 13:08:26 13:12:18 33° 262° (W) 13:16:12 145.880/145.840
JAS-2 28 Aug 13:09:41 13:14:51 85° 78° (ENE) 13:20:22 435.910
POLYITAN 1 28 Aug 13:10:57 13:14:50 33° 262° (W) 13:18:42 437.675
AUBIESAT-1 28 Aug 13:13:49 13:17:49 83° 290° (WNW) 13:21:30 437.475
HUMSAT D 28 Aug 13:14:45 13:16:45 13° 294° (WNW) 13:18:45 437.325/437.525
NANOSAT C BR1 28 Aug 13:19:05 13:22:46 28° 263° (W) 13:26:29 145.865
M-CUBED/EXP-1 PRIME 28 Aug 13:20:13 13:24:13 54° 291° (WNW) 13:27:52 437.505
VELOX 1 28 Aug 13:21:23 13:25:46 52° 100° (E) 13:30:05 145.980
CUBEBUG 1 28 Aug 13:21:31 13:25:57 67° 101° (E) 13:30:19 437.445
50 SAT 28 Aug 13:25:28 13:29:04 62° 100° (E) 13:32:42 437.505
SPROUT 28 Aug 13:35:54 13:39:53 37° 98° (E) 13:43:50 437.525
DX 1 28 Aug 13:36:13 13:40:30 50° 100° (E) 13:44:44 434.975-435.025
GONETS M04 28 Aug 13:45:05 13:53:42 61° 281° (W) 14:02:26
TISAT 1 28 Aug 13:54:31 13:55:47 11° 91° (E) 13:57:04 437.305
BUGSAT 1 28 Aug 13:57:03 14:00:39 27° 264° (W) 14:04:17 437.445
Gurwin Techsat 1B 28 Aug 13:59:44 14:03:52 23° 66° (ENE) 14:08:00 435.225
O/OREOS (USA 219) 28 Aug 14:04:24 14:08:10 27° 103° (ESE) 14:11:58 437.305
ESTCUBE 1 28 Aug 14:05:52 14:09:38 26° 291° (WNW) 14:13:24 437.505/2401.250
AO-7 28 Aug 14:09:26 14:10:51 10° 46° (NE) 14:12:16 29.400- 29.500
AO-85 28 Aug 14:09:42 14:12:12 15° 44° (NE) 14:14:38 145.980
AISAT 28 Aug 14:10:38 14:14:48 40° 288° (WNW) 14:18:57 437.250
UKube-1 28 Aug 14:15:11 14:19:32 74° 284° (WNW) 14:23:49 .
Cosmos 2499 28 Aug 14:19:17 14:26:58 43° 283° (WNW) 14:34:10 435.465 / 435.565
Oscar 19 28 Aug 14:21:13 14:26:22 82° 75° (ENE) 14:31:35 437.125/150
AIST 2 28 Aug 14:21:35 14:24:32 19° 311° (NW) 14:27:32 435.215
SRMSAT 28 Aug 14:21:51 14:23:45 12° 172° (S) 14:25:40 437.500
JUGNU 28 Aug 14:31:11 14:33:32 12° 186° (S) 14:35:53 437.505
PCSat 28 Aug 14:50:46 14:52:14 11° 318° (NW) 14:53:44 145.827
ISS 28 Aug 14:55:16 14:57:26 16° 25° (NNE) 14:59:35 145.825
VELOX 1 28 Aug 14:59:28 15:01:45 14° 296° (WNW) 15:04:01 145.980
CUBEBUG 1 28 Aug 15:00:30 15:01:37 11° 297° (WNW) 15:02:45 437.445
SPROUT 28 Aug 15:12:44 15:15:31 17° 293° (WNW) 15:18:16 437.525
DX 1 28 Aug 15:13:58 15:16:13 14° 295° (WNW) 15:18:28 434.975-435.025
SWISSCUBE 28 Aug 15:23:11 15:27:06 25° 96° (E) 15:31:00 437.505
TISAT 1 28 Aug 15:27:38 15:31:43 51° 286° (WNW) 15:35:46 437.305
ITAMSAT 1 28 Aug 15:37:16 15:42:21 59° 73° (ENE) 15:47:26 435.822/435.867
Gurwin Techsat 1B 28 Aug 15:38:33 15:43:32 41° 262° (W) 15:48:32 435.225
BEESAT 28 Aug 15:39:55 15:44:14 33° 98° (E) 15:48:31 436.000
O/OREOS (USA 219) 28 Aug 15:43:45 15:47:29 25° 299° (WNW) 15:51:16 437.305
AO-85 28 Aug 15:48:58 15:53:01 51° 244° (WSW) 15:56:49 145.980
AO-7 28 Aug 15:53:42 16:01:43 54° 66° (ENE) 16:09:45 29.400- 29.500
SRMSAT 28 Aug 16:09:21 16:12:03 13° 182° (S) 16:14:45 437.500
ITUPSAT 1 28 Aug 16:27:37 16:32:23 76° 285° (WNW) 16:37:09 437.325
ISS 28 Aug 16:30:57 16:34:14 75° 221° (SW) 16:37:30 145.825
SWISSCUBE 28 Aug 17:00:42 17:04:51 30° 291° (WNW) 17:08:59 437.505
KKS-1 28 Aug 17:10:27 17:14:28 32° 98° (E) 17:18:27 437.445
BEESAT 28 Aug 17:18:05 17:21:48 23° 293° (WNW) 17:25:30 436.000
ITAMSAT 1 28 Aug 17:19:17 17:22:09 15° 268° (W) 17:25:02 435.822/435.867
MOZHAYETS 4 28 Aug 17:22:25 17:26:58 62° 101° (E) 17:31:30
HORYU 2 28 Aug 17:28:39 17:32:44 36° 71° (ENE) 17:36:49 437.375
Cosmos 2491 28 Aug 17:30:01 17:34:01 14° 77° (ENE) 17:38:01 435.465 / 435.565
